Hourly Data Report for October 31, 2016

All times are specified in Local Standard Time (LST). Add 1 hour to adjust for Daylight Saving Time where and when it is observed.

BATHURST A
NEW BRUNSWICK

47°37'47.000" N
65°44'20.000" W
58.80 m
8100505
71574
ZBF

Download Data

Hourly Data (October 2016)
Hourly Data Report for October 31, 2016
Temp Definition
°C
Dew Point Temp Definition
°C
Rel Hum Definition
%
Wind Dir Definition
10's deg

Wind Spd Definition
km/h
Visibility Definition
km
Stn Press Definition
kPa
Hmdx Definition


Wind Chill Definition


Weather Definition


TIME
00:00 Legend Double Dagger 4.7 3.1 89 29 8 16.1 100.29     LegendNANA
01:00 Legend Double Dagger 4.5 3.0 90 27 7 16.1 100.32     LegendNANA
02:00 Legend Double Dagger 4.5 3.0 90 27 8 16.1 100.31     Cloudy
03:00 Legend Double Dagger 4.6 2.8 88 29 8 16.1 100.29     LegendNANA
04:00 Legend Double Dagger 4.5 2.7 88 29 9 16.1 100.32     LegendNANA
05:00 Legend Double Dagger 4.5 2.9 89 30 10 16.1 100.40     Cloudy
06:00 Legend Double Dagger 4.3 2.5 88 29 9 24.1 100.40     LegendNANA
07:00 Legend Double Dagger 4.2 2.2 87 29 12 24.1 100.46     LegendNANA
08:00 Legend Double Dagger 4.2 2.1 86 30 9 24.1 100.54     Mostly Cloudy
09:00 Legend Double Dagger 4.5 2.0 84 30 14 24.1 100.62     LegendNANA
10:00 Legend Double Dagger 5.1 1.9 80 31 11 24.1 100.68     LegendNANA
11:00 Legend Double Dagger 4.9 2.6 85 31 9 12.9 100.76     Drizzle
12:00 Legend Double Dagger 5.7 2.2 78 31 10 24.1 100.81     LegendNANA
13:00 Legend Double Dagger 6.0 2.5 78 32 11 24.1 100.85     LegendNANA
14:00 Legend Double Dagger 5.7 3.7 87 33 9 16.1 100.92     Rain Showers
15:00 Legend Double Dagger 6.3 3.6 83 33 10 24.1 100.99     LegendNANA
16:00 Legend Double Dagger 6.2 3.5 83 31 7 24.1 101.06     LegendNANA
17:00 Legend Double Dagger 6.2 2.5 77 33 10 24.1 101.14     Cloudy
18:00 Legend Double Dagger 5.7 2.0 77 32 12 24.1 101.25     LegendNANA
19:00 Legend Double Dagger 5.2 1.5 77 34 7 24.1 101.35     LegendNANA
20:00 Legend Double Dagger 4.9 1.0 76 33 9 24.1 101.46     Cloudy
21:00 Legend Double Dagger 4.5 1.2 79 32 9 24.1 101.58     LegendNANA
22:00 Legend Double Dagger 3.8 0.9 81 32 10 24.1 101.66     LegendNANA
23:00 Legend Double Dagger 2.9 0.3 83 31 8 24.1 101.70     Mostly Cloudy

Notes on Data Quality.

Legend

  • E = Estimated
  • M = Missing
  • NA = Not Available
  • ‡ = Partner data that is not subject to review by the National Climate Archives
Date modified: